YO3FVR-WX Weather Reports


time (UTC)temp
C
wind
direction
speed
KPH
gust
KPH
rain 1hr
cm
rain 24hr
cm
rain mn
cm
humidity
%
barometer
mb
20260902231724 21 0 0.0 0.0 0.00 0.00 0.00 68 1012.9
20260902230654 21 203 0.0 0.0 0.00 0.00 0.00 68 1012.9
20260902225624 21 203 0.0 0.0 0.00 0.00 0.00 68 1013.0
20260902224554 21 156 1.6 1.6 0.00 0.00 0.00 68 1012.9
20260902223554 21 0 0.0 0.0 0.00 0.00 0.00 67 1012.7
20260902222524 21 0 0.0 0.0 0.00 0.00 0.00 67 1012.8
20260902221454 21 206 0.0 3.2 0.00 0.00 0.00 66 1013.0
20260902220424 22 0 0.0 1.6 0.00 0.00 0.00 65 1013.1
20260902215354 22 200 1.6 1.6 0.00 0.00 0.00 65 1013.0
20260902214324 22 201 0.0 19.3 0.00 0.00 0.00 64 1012.8
20260902213254 22 0 0.0 29.0 0.00 0.00 0.00 64 1012.8
20260902212224 22 0 0.0 37.0 0.00 0.00 0.00 63 1012.9
20260902211154 22 203 1.6 1.6 0.00 0.00 0.00 63 1013.1
20260902210125 22 0 0.0 0.0 0.00 0.00 0.00 63 1013.0
20260902205054 22 0 0.0 3.2 0.00 0.00 0.00 63 1012.9
20260902204054 22 0 0.0 0.0 0.00 0.00 0.00 63 1012.8
20260902203024 22 0 0.0 0.0 0.00 0.00 0.00 63 1012.7
20260902201954 22 0 0.0 0.0 0.00 0.00 0.00 63 1012.8
20260902200924 22 0 0.0 0.0 0.00 0.00 0.00 62 1012.7
20260902195924 23 0 0.0 0.0 0.00 0.00 0.00 62 1012.8
20260902194854 23 0 0.0 0.0 0.00 0.00 0.00 61 1012.8
20260902193854 23 90 0.0 0.0 0.00 0.00 0.00 60 1012.8
20260902192824 23 0 0.0 0.0 0.00 0.00 0.00 60 1012.8
20260902191754 23 0 0.0 0.0 0.00 0.00 0.00 59 1012.9
20260902190754 23 0 0.0 0.0 0.00 0.00 0.00 59 1012.9
20260902185725 23 262 0.0 0.0 0.00 0.00 0.00 58 1012.8
20260902184724 23 0 0.0 0.0 0.00 0.00 0.00 58 1012.8
20260902183654 24 0 0.0 0.0 0.00 0.00 0.00 58 1012.9
20260902182625 24 0 0.0 0.0 0.00 0.00 0.00 58 1012.8
20260902181555 24 0 0.0 1.6 0.00 0.00 0.00 58 1012.8
20260902180555 25 0 0.0 1.6 0.00 0.00 0.00 58 1012.7
20260902175525 25 0 0.0 4.8 0.00 0.00 0.00 58 1012.7
20260902174455 25 193 4.8 4.8 0.00 0.00 0.00 57 1012.6
20260902173455 26 185 1.6 1.6 0.00 0.00 0.00 56 1012.4
20260902172425 27 219 1.6 19.3 0.00 0.00 0.00 54 1012.4
20260902171355 27 202 3.2 30.6 0.00 0.00 0.00 50 1011.9
20260902170325 28 216 3.2 8.0 0.00 0.00 0.00 50 1011.7
20260902165255 28 0 0.0 6.4 0.00 0.00 0.00 49 1011.7
20260902164255 28 0 0.0 30.6 0.00 0.00 0.00 48 1011.7
20260902163225 28 202 30.6 32.2 0.00 0.00 0.00 47 1011.6
20260902162225 29 203 1.6 1.6 0.00 0.00 0.00 47 1011.6
20260902161225 29 0 0.0 0.0 0.00 0.00 0.00 47 1011.5
20260902160155 29 0 0.0 0.0 0.00 0.00 0.00 46 1011.6
20260902155155 29 0 0.0 0.0 0.00 0.00 0.00 46 1011.6
20260902154125 30 0 0.0 0.0 0.00 0.00 0.00 46 1011.6
20260902153125 30 0 0.0 0.0 0.00 0.00 0.00 46 1011.5
20260902152055 30 0 0.0 0.0 0.00 0.00 0.00 45 1011.5
20260902151025 30 0 0.0 0.0 0.00 0.00 0.00 45 1011.7
20260902150025 30 0 0.0 0.0 0.00 0.00 0.00 45 1011.7
20260902145025 30 0 0.0 1.6 0.00 0.00 0.00 45 1011.8
20260902143955 30 0 0.0 0.0 0.00 0.00 0.00 45 1011.7
20260902142925 30 0 0.0 0.0 0.00 0.00 0.00 45 1011.8
20260902141855 30 0 0.0 1.6 0.00 0.00 0.00 45 1011.8
20260902140825 30 0 0.0 0.0 0.00 0.00 0.00 45 1011.9
20260902135755 30 0 0.0 0.0 0.00 0.00 0.00 46 1012.0
20260902134725 30 0 0.0 0.0 0.00 0.00 0.00 45 1012.2
20260902133655 30 0 0.0 0.0 0.00 0.00 0.00 45 1012.2
20260902132655 30 0 0.0 0.0 0.00 0.00 0.00 46 1012.3
20260902131625 30 0 0.0 0.0 0.00 0.00 0.00 46 1012.3
20260902130625 30 203 0.0 0.0 0.00 0.00 0.00 46 1012.4
20260902125625 30 0 0.0 0.0 0.00 0.00 0.00 46 1012.5
20260902124555 30 0 0.0 0.0 0.00 0.00 0.00 47 1012.7
20260902123555 29 0 0.0 3.2 0.00 0.00 0.00 47 1012.8
20260902122525 30 40 0.0 0.0 0.00 0.00 0.00 48 1013.0
20260902121455 29 0 0.0 0.0 0.00 0.00 0.00 49 1013.1
20260902120455 29 0 0.0 0.0 0.00 0.00 0.00 49 1013.2
20260902115455 28 90 0.0 0.0 0.00 0.00 0.00 49 1013.2
20260902114425 28 0 0.0 0.0 0.00 0.00 0.00 49 1013.4
20260902113355 28 179 0.0 0.0 0.00 0.00 0.00 49 1013.7
20260902112325 28 216 0.0 1.6 0.00 0.00 0.00 49 1013.8
20260902111255 28 0 0.0 0.0 0.00 0.00 0.00 50 1013.9
20260902110225 28 0 0.0 3.2 0.00 0.00 0.00 51 1013.9
20260902105225 28 0 0.0 1.6 0.00 0.00 0.00 51 1013.9
20260902104155 28 0 0.0 19.3 0.00 0.00 0.00 52 1014.0
20260902103155 28 321 19.3 19.3 0.00 0.00 0.00 53 1014.1
20260902102125 27 0 0.0 0.0 0.00 0.00 0.00 53 1014.2
20260902101055 27 0 0.0 0.0 0.00 0.00 0.00 54 1014.2
20260902100055 27 0 0.0 0.0 0.00 0.00 0.00 54 1014.3
20260902095025 27 0 0.0 0.0 0.00 0.00 0.00 55 1014.4
20260902093955 26 0 0.0 0.0 0.00 0.00 0.00 55 1014.4
20260902092925 26 0 0.0 0.0 0.00 0.00 0.00 55 1014.5
20260902091925 26 0 0.0 0.0 0.00 0.00 0.00 56 1014.6
20260902090855 26 0 0.0 0.0 0.00 0.00 0.00 57 1014.7
20260902085825 26 0 0.0 0.0 0.00 0.00 0.00 57 1014.7
20260902084755 26 0 0.0 0.0 0.00 0.00 0.00 57 1014.7
20260902083755 26 0 0.0 0.0 0.00 0.00 0.00 58 1014.7
20260902082755 26 0 0.0 0.0 0.00 0.00 0.00 59 1014.8
20260902081725 26 0 0.0 0.0 0.00 0.00 0.00 60 1014.8
20260902080725 25 0 0.0 0.0 0.00 0.00 0.00 61 1014.8
20260902075655 25 0 0.0 0.0 0.00 0.00 0.00 62 1014.9
20260902074655 25 0 0.0 0.0 0.00 0.00 0.00 62 1014.8
20260902073625 24 0 0.0 0.0 0.00 0.00 0.00 63 1014.8
20260902072555 23 0 0.0 0.0 0.00 0.00 0.00 64 1014.6
20260902071555 23 0 0.0 0.0 0.00 0.00 0.00 65 1014.8
20260902070555 23 0 0.0 0.0 0.00 0.00 0.00 66 1014.7
20260902065525 23 0 0.0 0.0 0.00 0.00 0.00 66 1014.6
20260902064455 22 0 0.0 0.0 0.00 0.00 0.00 68 1014.5
20260902063425 22 0 0.0 0.0 0.00 0.00 0.00 69 1014.5
20260902062355 21 0 0.0 0.0 0.00 0.00 0.00 72 1014.5
20260902061325 21 0 0.0 0.0 0.00 0.00 0.00 72 1014.5
20260902060255 21 0 0.0 0.0 0.00 0.00 0.00 74 1014.4
20260902055255 20 0 0.0 0.0 0.00 0.00 0.00 74 1014.5
20260902054225 20 0 0.0 0.0 0.00 0.00 0.00 75 1014.5
20260902053155 20 0 0.0 0.0 0.00 0.00 0.00 77 1014.6
20260902052155 20 0 0.0 0.0 0.00 0.00 0.00 77 1014.8
20260902051125 20 0 0.0 0.0 0.00 0.00 0.00 78 1014.7
20260902050125 20 0 0.0 0.0 0.00 0.00 0.00 78 1014.7
20260902045125 20 0 0.0 0.0 0.00 0.00 0.00 78 1014.5
20260902044055 20 0 0.0 0.0 0.00 0.00 0.00 78 1014.5
20260902043025 20 0 0.0 0.0 0.00 0.00 0.00 77 1014.1
20260902042025 20 0 0.0 0.0 0.00 0.00 0.00 76 1014.3
20260902040955 20 0 0.0 0.0 0.00 0.00 0.00 75 1014.0
20260902035955 20 0 0.0 0.0 0.00 0.00 0.00 73 1014.1
20260902034955 20 0 0.0 0.0 0.00 0.00 0.00 72 1014.3
20260902033925 21 0 0.0 0.0 0.00 0.00 0.00 71 1014.3
20260902032855 21 0 0.0 0.0 0.00 0.00 0.00 71 1014.1
20260902031825 21 0 0.0 0.0 0.00 0.00 0.00 71 1013.8
20260902030755 21 0 0.0 0.0 0.00 0.00 0.00 71 1013.7
20260902025755 21 0 0.0 0.0 0.00 0.00 0.00 70 1013.8
20260902024725 21 0 0.0 0.0 0.00 0.00 0.00 68 1013.8
20260902023655 22 0 0.0 0.0 0.00 0.00 0.00 65 1014.0
20260902022625 22 0 0.0 0.0 0.00 0.00 0.00 65 1013.9
20260902021555 22 0 0.0 0.0 0.00 0.00 0.00 65 1013.6
20260902020555 22 0 0.0 0.0 0.00 0.00 0.00 65 1013.5
20260902015526 22 0 0.0 0.0 0.00 0.00 0.00 64 1013.5
20260902014456 22 0 0.0 0.0 0.00 0.00 0.00 64 1013.5
20260902013425 22 0 0.0 0.0 0.00 0.00 0.00 64 1013.4
20260902012426 22 0 0.0 0.0 0.00 0.00 0.00 64 1013.4
20260902011356 22 0 0.0 0.0 0.00 0.00 0.00 63 1013.3
20260902010326 22 0 0.0 0.0 0.00 0.00 0.00 64 1013.4
20260902005256 22 0 0.0 0.0 0.00 0.00 0.00 64 1013.4
20260902004226 22 0 0.0 0.0 0.00 0.00 0.00 63 1013.5
20260902003226 22 0 0.0 0.0 0.00 0.00 0.00 63 1013.4
20260902002156 23 0 0.0 0.0 0.00 0.00 0.00 62 1013.2
20260902001126 23 0 0.0 0.0 0.00 0.00 0.00 62 1013.3
20260902000056 23 0 0.0 0.0 0.00 0.00 0.00 62 1013.3
20260901235026 23 0 0.0 0.0 0.00 0.00 0.00 61 1013.2
20260901233956 23 0 0.0 0.0 0.00 0.00 0.00 60 1013.3
20260901232926 23 0 0.0 0.0 0.00 0.00 0.00 60 1013.1